STRAND-1

Last updated on Sat Oct 25 2025 00:03:11 GMT+0000 (Coordinated Universal Time)

1 39090U 13009E 25297.44047809 .00000596 00000+0 21573-3 0 9995 2 39090 98.3844 118.5942 0008037 209.6474 150.4258 14.36941082663209
UTC large
Height (km)
Speed (km/s)
/
Latitude / Longitude
Inclination (degrees)
Orbital Period (minutes)
Azimuth
Elevation
Range (km)
Doppler Factor

Next 0 passes for location: London (51.5072 / 0.1276)

Sorry there are no passes over London.